Grand Canyon, AZ

3:46 AM MST on June 21, 2018 (GMT -0700)
Grand Canyon National Park

Weather History for KGCN - June, 2018

Change the Weather History Date:

Wednesday, June 13, 2018

  Actual Average Record
Temperature  
Mean Temperature 66 °F -  
Max Temperature 89 °F 77 °F 89 °F (2018)
Min Temperature 42 °F 35 °F 26 °F (2017)
Growing Degree Days 16 (Base 50)    
Moisture  
Dew Point 19 °F    
Average Humidity 17    
Maximum Humidity 34    
Minimum Humidity 5    
Precipitation  
Precipitation 0.00 in - - ()
Sea Level Pressure  
Sea Level Pressure 29.86 in    
Wind  
Wind Speed 5 mph (SSW)    
Max Wind Speed 18 mph    
Max Gust Speed 29 mph    
Visibility 10 miles    
Events      
Averages and records for this station are not official NWS values.
T = Trace of Precipitation, MM = Missing Value Source: NWS Daily Summary

Daily Weather History Graph

Daily Weather History Graph

Search for Another Location

Airport or City:

Astronomy

Jun. 13, 2018 Rise Set
Actual Time 5:11 AM MST 7:46 PM MST
Civil Twilight 4:41 AM MST 8:16 PM MST
Nautical Twilight 4:03 AM MST 8:53 PM MST
Astronomical Twilight 3:22 AM MST 9:35 PM MST
Moon 5:13 AM MST (6/13) 7:47 PM MST (6/13)
Length of Visible Light 15h 35m
Length of Day
14h 34m
Waning Crescent, 0% of the Moon is Illuminated
Jun 13
Waning Crescent
Jun 13
New
Jun 20
First Quarter
Jun 27
Full
Jul 6
Last Quarter

Hourly Weather History & Observations

Time (MST) Temp. Windchill Dew Point Humidity Pressure Visibility Wind Dir Wind Speed Gust Speed Precip Events Conditions
12:54 AM 46.0 °F - 8.1 °F 21% 29.91 in 10.0 mi Calm Calm - N/A   Clear
1:54 AM 46.0 °F 44.8 °F 9.0 °F 22% 29.90 in 10.0 mi ESE 3.5 mph - N/A   Clear
2:54 AM 45.0 °F - 10.0 °F 24% 29.88 in 10.0 mi Calm Calm - N/A   Clear
3:54 AM 44.1 °F 42.5 °F 10.9 °F 26% 29.90 in 10.0 mi East 3.5 mph - N/A   Clear
4:54 AM 42.1 °F - 10.9 °F 28% 29.91 in 10.0 mi Calm Calm - N/A   Clear
5:54 AM 46.9 °F - 12.9 °F 25% 29.88 in 10.0 mi Calm Calm - N/A   Clear
6:54 AM 62.1 °F - 17.1 °F 18% 29.85 in 10.0 mi Calm Calm - N/A   Clear
7:54 AM 73.9 °F - 15.1 °F 11% 29.84 in 10.0 mi Calm Calm - N/A   Clear
8:54 AM 82.0 °F - 19.9 °F 10% 29.85 in 10.0 mi South 8.1 mph 18.4 mph N/A   Clear
9:54 AM 82.9 °F - 25.0 °F 12% 29.88 in 10.0 mi South 10.4 mph - N/A   Clear
10:54 AM 82.0 °F - 28.9 °F 14% 29.91 in 10.0 mi SW 4.6 mph - N/A   Clear
11:54 AM 86.0 °F - 28.9 °F 13% 29.88 in 10.0 mi SSW 11.5 mph 18.4 mph N/A   Clear
12:54 PM 88.0 °F - 18.0 °F 8% 29.88 in 10.0 mi SW 13.8 mph 24.2 mph N/A   Partly Cloudy
1:54 PM 88.0 °F - 10.9 °F 6% 29.87 in 10.0 mi SSW 17.3 mph 21.9 mph N/A   Clear
2:54 PM 89.1 °F - 17.1 °F 7% 29.85 in 10.0 mi SW 12.7 mph 25.3 mph N/A   Clear
4:54 PM 88.0 °F - 8.1 °F 5% 29.85 in 10.0 mi SSW 17.3 mph 28.8 mph N/A   Clear
5:54 PM 86.0 °F - 12.9 °F 7% 29.82 in 10.0 mi SW 18.4 mph 28.8 mph N/A   Clear
6:54 PM 82.0 °F - 25.0 °F 12% 29.79 in 10.0 mi WSW 11.5 mph 21.9 mph N/A   Clear
7:54 PM 77.0 °F - 28.0 °F 17% 29.77 in 10.0 mi WSW 9.2 mph - N/A   Clear
8:54 PM 72.0 °F - 28.0 °F 20% 29.78 in 10.0 mi SW 6.9 mph - N/A   Clear
9:54 PM 69.1 °F - 30.0 °F 23% 29.81 in 10.0 mi SW 5.8 mph - N/A   Clear
10:54 PM 59.0 °F - 27.0 °F 29% 29.85 in 10.0 mi Calm Calm - N/A   Clear
11:54 PM 54.0 °F - 26.1 °F 34% 29.85 in 10.0 mi Calm Calm - N/A   Clear